| time (UTC) | temp F | wind direction | speed MPH | gust MPH | rain 1hr in | rain 24hr in | rain mn in | humidity % | barometer mb |
| 20260902151504 | 83 | 340 | 3.0 | 8.0 | 0.00 | 0.00 | 0.00 | 69 | 1023.0 |
| 20260902150004 | 82 | 157 | 4.0 | 9.0 | 0.00 | 0.00 | 0.00 | 75 | 1022.9 |
| 20260902144503 | 81 | 131 | 1.0 | 8.0 | 0.00 | 0.00 | 0.00 | 74 | 1023.0 |
| 20260902143004 | 81 | 165 | 2.0 | 7.0 | 0.00 | 0.00 | 0.00 | 76 | 1022.9 |
| 20260902141506 | 80 | 117 | 1.0 | 4.0 | 0.00 | 0.00 | 0.00 | 79 | 1023.0 |
| 20260902140004 | 78 | 107 | 1.0 | 3.0 | 0.00 | 0.00 | 0.00 | 83 | 1022.9 |
| 20260902134503 | 77 | 5 | 2.0 | 4.0 | 0.00 | 0.00 | 0.00 | 85 | 1022.7 |
| 20260902133004 | 75 | 130 | 2.0 | 3.0 | 0.00 | 0.00 | 0.00 | 87 | 1022.8 |
| 20260902131504 | 73 | 115 | 0.0 | 2.0 | 0.00 | 0.00 | 0.00 | 91 | 1022.9 |
| 20260902130003 | 70 | 296 | 0.0 | 0.0 | 0.00 | 0.00 | 0.00 | 96 | 1022.8 |
| 20260902124515 | 69 | 296 | 0.0 | 0.0 | 0.00 | 0.00 | 0.00 | 98 | 1022.7 |
| 20260902123005 | 68 | 296 | 0.0 | 0.0 | 0.00 | 0.00 | 0.00 | 98 | 1022.8 |
| 20260902121508 | 66 | 296 | 0.0 | 0.0 | 0.00 | 0.00 | 0.00 | 99 | 1022.8 |
| 20260902120009 | 65 | 296 | 0.0 | 0.0 | 0.00 | 0.00 | 0.00 | 98 | 1022.8 |
| 20260902114508 | 64 | 296 | 0.0 | 0.0 | 0.00 | 0.00 | 0.00 | 99 | 1022.6 |
| 20260902113009 | 63 | 296 | 0.0 | 0.0 | 0.00 | 0.00 | 0.00 | 98 | 1022.7 |
| 20260902111507 | 63 | 296 | 0.0 | 0.0 | 0.00 | 0.00 | 0.00 | 98 | 1022.8 |
| 20260902110013 | 63 | 296 | 0.0 | 0.0 | 0.00 | 0.00 | 0.00 | 98 | 1022.7 |
| 20260902104512 | 64 | 296 | 0.0 | 0.0 | 0.00 | 0.00 | 0.00 | 98 | 1022.8 |
| 20260902103026 | 64 | 296 | 0.0 | 0.0 | 0.00 | 0.00 | 0.00 | 98 | 1022.7 |
| 20260902101525 | 64 | 296 | 0.0 | 0.0 | 0.00 | 0.00 | 0.00 | 98 | 1022.8 |
| 20260902100015 | 64 | 296 | 0.0 | 0.0 | 0.00 | 0.00 | 0.00 | 98 | 1022.7 |
| 20260902094517 | 64 | 296 | 0.0 | 0.0 | 0.00 | 0.00 | 0.00 | 98 | 1022.7 |
| 20260902093002 | 64 | 296 | 0.0 | 0.0 | 0.00 | 0.00 | 0.00 | 98 | 1022.7 |
| 20260902091505 | 64 | 296 | 0.0 | 0.0 | 0.00 | 0.00 | 0.00 | 98 | 1022.6 |
| 20260902090011 | 65 | 296 | 0.0 | 0.0 | 0.00 | 0.00 | 0.00 | 98 | 1022.6 |
| 20260902084503 | 65 | 296 | 0.0 | 0.0 | 0.00 | 0.00 | 0.00 | 98 | 1022.5 |
| 20260902083003 | 65 | 296 | 0.0 | 0.0 | 0.00 | 0.00 | 0.00 | 98 | 1022.4 |
| 20260902081503 | 65 | 296 | 0.0 | 0.0 | 0.00 | 0.00 | 0.00 | 98 | 1022.3 |
| 20260902080006 | 65 | 296 | 0.0 | 0.0 | 0.00 | 0.00 | 0.00 | 98 | 1022.1 |
| 20260902074512 | 65 | 296 | 0.0 | 0.0 | 0.00 | 0.00 | 0.00 | 98 | 1022.0 |
| 20260902073003 | 65 | 296 | 0.0 | 0.0 | 0.00 | 0.00 | 0.00 | 98 | 1022.0 |
| 20260902071503 | 65 | 296 | 0.0 | 0.0 | 0.00 | 0.00 | 0.00 | 98 | 1022.0 |
| 20260902070005 | 65 | 296 | 0.0 | 0.0 | 0.00 | 0.00 | 0.00 | 98 | 1022.0 |
| 20260902064512 | 66 | 296 | 0.0 | 0.0 | 0.00 | 0.00 | 0.00 | 98 | 1022.2 |
| 20260902063021 | 66 | 249 | 0.0 | 2.0 | 0.00 | 0.00 | 0.00 | 98 | 1022.2 |
| 20260902061503 | 66 | 309 | 0.0 | 0.0 | 0.00 | 0.00 | 0.00 | 98 | 1022.2 |
| 20260902060007 | 66 | 309 | 0.0 | 0.0 | 0.00 | 0.00 | 0.00 | 98 | 1022.2 |
| 20260902054505 | 66 | 279 | 0.0 | 0.0 | 0.00 | 0.00 | 0.00 | 97 | 1022.2 |
| 20260902053017 | 66 | 279 | 0.0 | 0.0 | 0.00 | 0.00 | 0.00 | 97 | 1022.2 |
| 20260902051517 | 67 | 279 | 0.0 | 1.0 | 0.00 | 0.00 | 0.00 | 97 | 1022.0 |
| 20260902050006 | 67 | 279 | 0.0 | 1.0 | 0.00 | 0.00 | 0.00 | 97 | 1021.9 |
| 20260902044504 | 67 | 321 | 1.0 | 3.0 | 0.00 | 0.00 | 0.00 | 97 | 1021.9 |
| 20260902043006 | 67 | 305 | 0.0 | 3.0 | 0.00 | 0.00 | 0.00 | 97 | 1021.8 |
| 20260902041515 | 68 | 281 | 1.0 | 2.0 | 0.00 | 0.00 | 0.00 | 97 | 1021.7 |
| 20260902040020 | 68 | 254 | 1.0 | 2.0 | 0.00 | 0.00 | 0.00 | 97 | 1021.6 |
| 20260902034504 | 68 | 263 | 0.0 | 2.0 | 0.00 | 0.00 | 0.00 | 97 | 1021.6 |
| 20260902033006 | 68 | 263 | 0.0 | 2.0 | 0.00 | 0.00 | 0.00 | 97 | 1021.5 |
| 20260902031511 | 69 | 263 | 0.0 | 3.0 | 0.00 | 0.00 | 0.00 | 97 | 1021.6 |
| 20260902030019 | 69 | 318 | 0.0 | 2.0 | 0.00 | 0.00 | 0.00 | 96 | 1021.7 |
| 20260902024524 | 69 | 318 | 0.0 | 2.0 | 0.00 | 0.00 | 0.00 | 96 | 1021.7 |
| 20260902023005 | 69 | 318 | 1.0 | 3.0 | 0.00 | 0.00 | 0.00 | 96 | 1021.7 |
| 20260902021508 | 70 | 318 | 1.0 | 2.0 | 0.00 | 0.00 | 0.00 | 96 | 1021.7 |
| 20260902020020 | 70 | 318 | 1.0 | 3.0 | 0.00 | 0.00 | 0.00 | 95 | 1021.5 |
| 20260902014520 | 71 | 318 | 0.0 | 2.0 | 0.00 | 0.00 | 0.00 | 95 | 1021.7 |
| 20260902013026 | 71 | 309 | 0.0 | 3.0 | 0.00 | 0.00 | 0.00 | 95 | 1021.5 |
| 20260902011530 | 71 | 296 | 2.0 | 5.0 | 0.00 | 0.00 | 0.00 | 94 | 1021.5 |
| 20260902010016 | 72 | 305 | 2.0 | 3.0 | 0.00 | 0.00 | 0.00 | 94 | 1021.4 |
| 20260902004520 | 73 | 250 | 1.0 | 3.0 | 0.00 | 0.00 | 0.00 | 93 | 1021.2 |
| 20260902003029 | 73 | 300 | 1.0 | 6.0 | 0.00 | 0.00 | 0.00 | 93 | 1021.0 |
| 20260902001529 | 74 | 309 | 3.0 | 6.0 | 0.00 | 0.00 | 0.00 | 92 | 1020.8 |
| 20260902000031 | 75 | 286 | 2.0 | 4.0 | 0.00 | 0.00 | 0.00 | 91 | 1020.9 |
| 20260901234515 | 76 | 300 | 1.0 | 3.0 | 0.00 | 0.00 | 0.00 | 90 | 1020.9 |
| 20260901233020 | 77 | 281 | 1.0 | 3.0 | 0.00 | 0.00 | 0.00 | 87 | 1020.8 |
| 20260901231525 | 78 | 302 | 1.0 | 5.0 | 0.00 | 0.00 | 0.00 | 84 | 1020.8 |
| 20260901230032 | 80 | 301 | 2.0 | 4.0 | 0.00 | 0.00 | 0.00 | 82 | 1020.7 |
| 20260901224532 | 82 | 218 | 0.0 | 2.0 | 0.00 | 0.00 | 0.00 | 80 | 1020.6 |
| 20260901223024 | 82 | 243 | 0.0 | 3.0 | 0.00 | 0.00 | 0.00 | 75 | 1020.6 |
| 20260901221521 | 82 | 254 | 0.0 | 1.0 | 0.00 | 0.00 | 0.00 | 78 | 1020.6 |
| 20260901220035 | 80 | 261 | 1.0 | 3.0 | 0.00 | 0.00 | 0.00 | 81 | 1020.8 |
| 20260901214534 | 81 | 238 | 0.0 | 3.0 | 0.00 | 0.00 | 0.00 | 78 | 1020.8 |
| 20260901213049 | 81 | 229 | 1.0 | 4.0 | 0.00 | 0.00 | 0.00 | 77 | 1020.6 |
| 20260901211517 | 82 | 305 | 2.0 | 6.0 | 0.00 | 0.00 | 0.00 | 72 | 1021.1 |
| 20260901210026 | 82 | 310 | 3.0 | 8.0 | 0.00 | 0.00 | 0.00 | 70 | 1021.2 |
| 20260901204530 | 83 | 306 | 3.0 | 10.0 | 0.00 | 0.00 | 0.00 | 68 | 1021.1 |
| 20260901203034 | 84 | 268 | 4.0 | 11.0 | 0.00 | 0.00 | 0.00 | 66 | 1021.1 |
| 20260901201531 | 84 | 273 | 2.0 | 6.0 | 0.00 | 0.00 | 0.00 | 70 | 1021.2 |
| 20260901200003 | 83 | 321 | 3.0 | 6.0 | 0.00 | 0.00 | 0.00 | 72 | 1021.4 |
| 20260901194505 | 82 | 296 | 4.0 | 8.0 | 0.00 | 0.00 | 0.00 | 72 | 1021.7 |
| 20260901193008 | 81 | 305 | 2.0 | 7.0 | 0.00 | 0.00 | 0.00 | 73 | 1021.4 |
| 20260901191512 | 82 | 298 | 4.0 | 11.0 | 0.00 | 0.00 | 0.00 | 70 | 1021.5 |
| 20260901190005 | 83 | 308 | 4.0 | 13.0 | 0.00 | 0.00 | 0.00 | 69 | 1022.1 |
| 20260901184508 | 83 | 272 | 5.0 | 13.0 | 0.00 | 0.00 | 0.00 | 71 | 1022.1 |
| 20260901183008 | 82 | 232 | 3.0 | 11.0 | 0.00 | 0.00 | 0.00 | 73 | 1022.3 |
| 20260901181511 | 80 | 325 | 6.0 | 17.0 | 0.00 | 0.00 | 0.00 | 74 | 1022.8 |
| 20260901180017 | 82 | 331 | 5.0 | 20.0 | 0.00 | 0.00 | 0.00 | 72 | 1022.8 |
| 20260901174525 | 83 | 326 | 7.0 | 17.0 | 0.00 | 0.00 | 0.00 | 72 | 1022.7 |
| 20260901173006 | 81 | 314 | 8.0 | 15.0 | 0.00 | 0.00 | 0.00 | 70 | 1022.7 |
| 20260901171512 | 82 | 329 | 6.0 | 10.0 | 0.00 | 0.00 | 0.00 | 71 | 1022.6 |
| 20260901170011 | 81 | 322 | 3.0 | 14.0 | 0.00 | 0.00 | 0.00 | 71 | 1022.4 |
| 20260901164523 | 82 | 302 | 6.0 | 14.0 | 0.00 | 0.00 | 0.00 | 70 | 1022.2 |
| 20260901163027 | 81 | 320 | 5.0 | 14.0 | 0.00 | 0.00 | 0.00 | 74 | 1022.4 |
| 20260901161504 | 81 | 322 | 7.0 | 12.0 | 0.00 | 0.00 | 0.00 | 73 | 1022.3 |
| 20260901160014 | 81 | 319 | 7.0 | 14.0 | 0.00 | 0.00 | 0.00 | 72 | 1022.2 |
| 20260901154517 | 81 | 237 | 9.0 | 16.0 | 0.00 | 0.00 | 0.00 | 73 | 1022.4 |
| 20260901153023 | 80 | 294 | 5.0 | 12.0 | 0.00 | 0.00 | 0.00 | 74 | 1022.1 |